Simultaneous Nadir Overpasses (SNOs) Predictions

Prediction of SNOs between GOES-17 and TERRA Satellite Orbit:

Table of predicted SNOs for the next 14.0 days since TLE Epoch: 11/18/2023
Index Date Time (GOES-17) GOES-17 Lat,Lon TERRA Lat,Lon Distance(km) Time Diff (sec)
1 11/18/2023 16:43:17 0.03,-104.67 -0.75,-100.93 424.99 80
2 11/19/2023 05:03:31 -0.04,-104.66 -0.28,-105.85 134.87 80
3 11/21/2023 04:44:09 -0.04,-104.66 0.54,-101.81 323.02 80
4 11/21/2023 17:04:16 0.04,-104.66 0.45,-106.71 231.81 80
5 11/23/2023 16:50:14 0.04,-104.67 -0.39,-102.68 226.64 80
6 11/24/2023 05:10:27 -0.04,-104.66 -0.63,-107.59 332.55 80
7 11/26/2023 04:51:04 -0.04,-104.66 0.17,-103.55 125.78 80
8 11/26/2023 17:11:11 0.04,-104.66 0.81,-108.45 429.58 80
9 11/28/2023 16:57:08 0.04,-104.67 -0.01,-104.41 28.94 80
10 11/30/2023 16:40:25 0.05,-104.67 -0.84,-100.37 487.74 80
11 12/01/2023 05:00:39 -0.05,-104.67 -0.16,-105.30 71.02 80
